GFSFLT1_sfc_30mbdewp_174.txt.gz
Dewpoint
62 63 65 65 65 64 63 63 60 57 55 51 48 47 46 45 45 45 45 44 43 43 42 41 40 40 40 37 35 39 42 46
61 62 64 65 65 64 63 61 58 56 53 50 47 46 44 44 45 45 44 43 43 43 42 40 39 38 39 36 37 40 40 40
57 60 63 64 65 64 61 60 56 55 54 51 47 44 43 43 43 43 43 43 43 42 40 38 37 37 39 38 35 35 35 37
37 57 61 63 64 64 61 59 56 54 50 48 47 45 44 44 43 42 42 42 42 41 39 37 36 36 36 36 36 33 31 34
45 44 58 62 63 63 59 56 55 51 50 48 47 45 43 42 42 41 41 41 41 40 39 37 36 35 34 35 35 34 33 31
48 47 58 59 59 57 55 53 51 50 50 49 48 45 43 41 41 40 40 39 40 39 38 36 35 35 34 33 33 32 33 32
50 51 52 51 52 52 52 49 49 49 48 47 45 43 42 40 39 39 39 38 38 37 36 36 34 34 33 33 33 31 31 31
49 50 50 50 50 50 49 49 48 48 47 47 46 45 43 40 39 38 37 36 35 35 34 34 33 33 34 33 32 31 30 30
49 49 50 51 51 50 50 49 49 49 48 47 46 44 42 41 40 39 38 36 35 34 34 33 33 34 33 32 31 29 29 29
48 50 50 51 51 51 51 51 50 50 50 48 46 45 44 42 41 39 38 36 34 33 32 32 32 32 32 31 29 28 28 27
49 49 50 51 52 52 52 51 50 50 50 48 46 44 43 42 40 38 37 35 32 31 31 31 32 31 30 29 29 28 26 26
48 49 50 51 51 51 51 51 50 49 48 46 44 43 42 41 39 38 36 34 32 30 30 29 30 28 29 28 29 27 25 24
46 47 48 48 49 49 49 49 48 47 46 44 43 42 40 39 37 36 35 33 31 29 29 30 31 28 29 28 27 28 25 23
42 44 45 46 46 47 47 47 47 44 42 40 38 37 36 36 35 35 34 32 31 31 31 31 30 29 29 30 30 28 26 23
38 39 42 43 43 44 44 43 42 40 38 37 36 35 35 35 35 34 33 32 32 32 32 31 30 30 31 31 30 27 25 22
32 32 37 42 42 42 41 40 39 37 36 35 34 33 33 33 33 32 32 31 32 33 33 32 32 31 31 30 29 26 24 22
34 32 33 40 42 41 40 39 38 37 35 34 33 32 32 32 32 32 32 33 33 32 31 31 31 31 31 31 28 26 24 23
34 34 34 37 41 41 40 39 37 36 35 33 33 32 32 32 33 33 32 32 32 31 31 30 30 30 31 31 29 26 25 24
33 33 33 37 41 41 39 38 37 35 34 33 33 33 33 33 32 32 32 31 31 30 29 29 29 30 31 30 28 25 24 22

GFSFLT1_sfc_30mbdewp_177.txt.gz
Dewpoint
58 63 64 65 64 65 64 64 63 61 60 59 55 53 52 51 52 51 50 48 48 47 45 45 43 42 41 39 39 44 46 49
59 63 64 65 65 64 63 63 61 61 58 55 52 51 48 48 48 48 47 47 46 46 44 44 42 41 39 41 45 45 46 47
43 61 64 65 65 64 63 63 60 60 57 57 54 49 48 48 47 47 46 46 45 45 43 42 41 41 40 42 45 44 43 44
44 42 59 64 64 65 64 62 59 59 58 51 49 47 47 46 47 45 44 45 45 44 43 41 41 41 41 40 43 44 42 40
49 47 44 59 63 65 63 60 59 57 54 53 50 51 47 47 46 45 44 44 43 43 41 40 39 39 40 40 39 39 39 39
51 53 54 54 55 56 56 56 53 52 53 52 52 50 47 45 44 44 44 44 44 43 41 40 39 38 38 38 38 37 36 36
51 52 52 51 50 50 50 50 50 51 50 48 46 45 44 43 43 42 42 42 42 41 39 38 37 37 36 36 36 35 35 36
51 51 50 50 49 49 49 49 48 49 49 49 48 47 46 44 43 43 41 40 38 38 37 36 36 36 36 35 34 34 34 33
49 50 51 50 50 49 48 48 49 50 50 49 48 46 45 44 43 42 41 40 40 38 37 37 36 36 35 35 33 32 33 32
49 50 50 51 50 50 50 50 50 50 49 48 47 46 46 45 44 44 42 41 40 39 38 37 36 35 34 33 31 31 31 30
48 50 51 51 50 50 50 50 50 50 49 49 48 47 47 46 44 44 41 39 36 35 35 34 34 34 33 32 30 30 29 28
49 50 51 51 51 51 51 51 50 50 49 48 47 46 46 44 43 41 40 37 35 34 33 33 32 31 31 31 30 28 27 26
49 50 51 50 50 50 51 50 50 50 49 47 46 45 44 42 41 40 39 37 35 33 32 33 32 33 32 31 29 28 27 27
47 48 49 49 50 50 50 50 49 48 46 46 45 44 43 42 41 39 38 36 33 32 32 33 32 31 31 30 30 29 28 26
42 45 47 47 48 49 49 49 48 46 45 44 43 41 40 40 39 38 36 34 32 32 32 31 31 31 31 31 31 29 28 26
38 40 42 44 45 46 47 46 45 44 43 42 41 40 39 38 37 36 35 34 32 32 32 33 33 33 33 32 31 29 27 23
35 35 36 41 43 44 44 44 43 42 41 39 37 37 37 37 37 35 34 34 35 34 33 32 32 32 32 32 31 29 25 22
34 35 35 36 41 43 43 42 41 40 39 37 35 36 35 35 35 34 34 34 34 33 32 32 31 32 32 31 28 27 25 25
36 36 36 36 40 43 43 42 40 39 37 35 34 34 33 34 34 33 33 33 32 31 31 31 31 31 32 30 28 29 28 27

GFSFLT1_sfc_30mbdewp_180.txt.gz
Dewpoint
35 45 52 58 60 62 63 64 64 65 65 64 63 62 62 60 60 59 60 57 56 56 53 52 50 46 44 40 39 39 43 46
41 49 53 59 62 64 65 64 64 64 63 61 57 58 54 55 55 53 54 53 54 54 51 51 48 46 42 41 41 43 46 47
38 50 56 61 63 64 65 65 64 63 62 60 58 55 52 52 52 52 50 51 52 51 50 49 47 44 43 42 43 42 45 46
43 44 49 60 62 64 65 64 62 62 60 57 53 51 50 49 49 50 50 50 50 48 48 46 45 43 41 43 45 43 44 45
48 48 45 46 61 64 65 63 62 61 58 55 53 55 52 51 50 49 48 48 47 46 45 44 42 42 43 43 45 46 44 43
51 52 53 55 57 59 60 59 57 56 56 54 55 51 48 47 46 45 45 46 46 45 44 43 43 43 41 41 41 40 42 42
51 53 54 54 54 53 53 53 52 53 52 50 48 47 46 45 44 43 43 43 43 43 43 42 42 41 40 39 39 39 37 37
50 51 52 52 52 51 50 50 49 50 49 49 49 48 47 46 45 44 43 43 42 43 44 41 40 39 38 38 37 37 37 36
50 51 52 52 52 52 51 50 50 50 50 50 50 48 48 47 46 45 45 43 43 42 43 42 41 41 41 40 40 39 39 40
50 51 52 52 53 53 53 52 51 51 51 51 49 48 47 46 45 46 46 44 43 43 42 41 41 40 39 38 38 37 35 34
50 51 51 51 51 51 51 51 51 51 51 50 49 48 47 47 46 45 45 43 42 41 40 38 37 36 34 33 32 32 31 31
50 50 49 48 48 48 49 50 50 50 51 50 49 48 47 47 47 46 45 42 40 39 37 36 34 34 33 32 31 30 30 29
47 48 47 47 47 47 47 48 49 49 49 49 50 49 48 48 45 43 41 39 38 36 35 34 33 33 34 32 29 29 30 29
44 46 46 46 46 46 46 47 47 48 49 50 49 49 47 46 43 41 40 38 37 35 33 32 33 34 33 33 32 31 29 28
42 44 46 46 46 46 47 48 48 49 49 49 48 48 47 46 44 43 42 40 38 35 34 34 34 34 32 31 31 31 31 31
40 42 44 44 46 47 48 49 50 49 49 49 49 48 46 45 44 43 42 40 37 34 33 33 33 33 32 32 33 32 31 27
37 36 38 41 43 46 48 49 49 49 48 48 48 45 44 43 42 41 40 38 36 35 35 36 37 34 34 33 33 32 30 27
32 32 35 39 39 42 43 47 49 48 48 48 44 43 42 43 41 40 39 38 37 37 36 35 35 34 33 32 32 32 29 28
36 36 36 36 38 39 43 45 47 47 47 45 42 42 40 41 41 39 39 39 36 35 34 34 34 33 33 31 30 33 31 30

GFSFLT1_sfc_30mbdewp_183.txt.gz
Dewpoint
32 32 34 37 45 52 57 63 64 64 63 64 63 63 64 64 65 64 66 65 63 62 61 59 56 51 49 47 43 40 40 44
32 36 43 44 50 54 58 61 65 64 64 64 64 63 63 63 62 62 63 62 61 60 60 58 57 52 49 47 43 40 41 47
32 39 49 49 52 57 60 62 65 65 65 64 62 62 61 59 56 54 54 55 55 56 56 56 55 51 49 46 44 42 44 46
37 43 44 54 56 59 64 65 65 65 64 62 58 56 54 54 53 51 51 53 52 52 51 53 55 49 47 46 46 44 45 47
43 48 45 45 56 62 66 66 65 64 63 57 55 56 53 53 52 51 50 49 47 47 47 47 47 49 47 47 48 47 46 46
47 49 50 53 58 61 66 65 63 62 58 56 56 54 52 50 49 48 47 46 46 45 46 45 44 45 46 45 44 46 46 44
48 51 53 54 55 55 56 56 55 56 56 54 52 49 48 46 46 45 45 45 44 44 43 43 43 42 42 41 41 42 42 40
48 49 51 53 54 53 53 52 51 51 50 50 49 48 47 46 45 44 44 43 44 43 44 44 44 44 44 43 43 43 43 44
48 49 51 53 54 54 53 52 50 51 51 50 49 49 48 47 47 46 45 45 45 45 44 45 44 44 44 43 42 42 42 43
48 50 51 52 53 54 55 54 53 53 52 52 50 50 49 48 48 47 46 45 45 44 43 42 42 41 41 41 41 40 41 41
47 49 51 51 52 54 54 53 52 53 52 52 51 50 49 48 47 46 45 45 44 44 42 42 42 40 40 39 38 37 36 36
47 49 50 50 51 51 50 50 51 51 50 49 49 48 48 47 47 46 46 45 45 43 43 41 38 37 36 34 33 33 32 31
46 47 46 47 47 47 48 49 49 51 50 49 49 48 48 48 47 47 46 45 44 41 39 37 35 35 34 33 30 30 30 30
43 45 45 44 45 44 45 47 47 49 49 49 50 49 48 48 47 46 44 42 40 38 36 35 33 33 33 32 31 31 33 33
41 44 43 44 44 44 44 45 46 46 47 50 50 49 49 47 45 43 42 40 39 37 36 33 34 35 36 36 35 33 32 31
42 42 42 43 44 43 44 45 46 46 46 47 49 49 49 48 46 45 44 42 40 39 37 36 37 37 35 33 33 33 33 32
44 42 44 46 48 45 44 44 47 48 46 47 50 49 48 47 46 45 44 43 41 39 37 37 37 36 34 34 35 33 32 31
43 43 41 38 40 46 48 46 47 50 48 49 50 49 48 47 46 44 44 43 40 39 39 38 38 37 34 34 34 34 33 31
44 43 42 43 43 42 47 48 50 50 50 50 50 48 47 46 45 44 44 43 41 40 40 39 38 36 33 33 33 36 35 33

GFSFLT1_sfc_30mbdewp_189.txt.gz
Dewpoint
27 32 39 39 46 59 61 62 63 64 66 66 66 67 66 67 66 67 66 66 66 65 63 62 60 58 57 55 52 50 47 47
34 42 48 46 48 59 61 62 63 63 64 64 64 64 65 63 64 66 66 66 65 64 62 60 59 57 56 54 52 48 47 47
42 45 49 58 61 58 62 63 65 63 63 63 64 62 60 59 58 58 58 61 62 61 60 59 58 57 55 53 50 48 48 50
45 46 52 58 62 63 63 64 65 64 63 60 58 58 57 57 56 55 54 54 54 56 57 55 55 56 54 53 51 48 49 52
48 50 54 55 57 62 64 65 65 64 62 61 61 60 58 56 55 53 52 51 51 51 51 52 51 51 50 50 50 50 52 51
48 51 54 55 55 59 63 65 65 64 62 61 61 59 57 53 51 50 49 49 50 49 49 49 49 49 49 50 50 50 50 49
50 52 53 54 55 57 60 63 62 62 60 60 60 57 54 51 49 48 47 48 48 48 48 48 49 49 49 49 50 50 50 50
49 51 52 54 54 55 56 56 56 57 58 58 57 55 53 51 48 47 46 46 46 47 48 48 48 48 47 48 47 47 47 46
47 49 53 54 54 54 54 54 53 53 53 52 52 51 50 49 48 47 46 46 46 47 47 46 46 46 46 46 46 46 45 45
47 49 53 54 54 54 54 53 52 52 51 51 50 50 49 47 47 47 47 47 46 46 46 45 45 45 45 45 44 44 43 43
47 48 51 54 55 54 54 53 53 52 51 50 49 49 48 48 47 46 46 46 45 45 45 45 45 44 43 43 42 42 41 41
47 48 50 51 55 55 55 54 53 52 51 50 50 49 48 47 46 46 46 45 45 45 44 44 43 42 41 41 40 40 40 39
46 47 50 52 54 54 54 53 52 52 51 50 49 48 47 46 46 45 45 45 44 44 43 42 41 41 40 38 38 37 37 36
44 48 49 52 52 51 52 52 51 50 50 49 48 48 47 47 46 46 45 45 44 43 43 41 41 40 38 37 36 36 35 35
45 49 51 52 52 51 51 52 51 50 50 49 48 48 47 47 47 46 46 45 44 43 42 40 38 37 36 34 35 34 33 33
48 49 48 50 51 52 52 52 52 51 50 49 48 48 48 48 47 47 46 45 42 40 39 38 37 35 34 33 33 33 33 33
46 46 46 46 45 47 48 50 52 53 50 49 48 48 48 47 47 46 43 42 41 40 38 37 35 34 33 35 35 34 33 30
33 33 37 42 45 46 46 47 50 51 54 52 50 48 48 47 46 45 43 42 40 39 37 36 35 36 37 36 34 33 32 29
29 28 28 34 40 43 46 47 47 47 48 51 51 49 48 47 46 45 43 42 41 39 37 37 37 36 35 35 34 33 32 29

GFSFLT1_sfc_30mbdewp_192.txt.gz
Dewpoint
28 29 31 34 39 59 65 66 66 66 66 66 66 67 66 67 67 67 67 67 67 66 65 64 64 62 60 59 56 52 50 49
39 50 51 47 53 59 62 65 66 66 65 65 66 65 65 65 65 66 67 67 66 65 64 63 61 61 59 56 54 50 48 49
48 57 61 61 59 59 61 63 64 65 65 65 64 64 61 60 59 60 63 64 64 64 62 61 60 58 57 56 53 51 50 52
50 54 57 60 60 61 62 62 63 63 63 61 59 59 58 58 57 57 57 58 60 61 59 58 58 58 55 54 54 51 51 53
50 51 53 57 61 63 63 64 64 62 62 62 62 62 60 59 57 54 54 54 55 56 56 55 54 53 52 51 52 53 53 51
50 51 53 54 58 62 64 64 63 62 61 61 61 60 58 55 54 53 51 51 52 53 53 52 52 51 51 52 52 52 52 52
51 53 53 53 55 59 60 61 61 61 60 60 60 59 56 54 52 52 50 49 50 50 51 51 51 51 51 52 52 51 52 51
50 50 52 52 53 56 58 58 57 58 59 59 59 57 55 54 52 50 49 48 48 49 50 50 50 50 50 50 50 50 50 50
48 51 52 53 53 53 56 57 57 56 56 56 55 55 53 52 50 49 48 48 48 49 49 48 48 48 48 48 48 48 48 48
47 51 53 53 53 53 53 54 54 53 53 52 52 51 51 49 48 48 47 47 47 47 47 47 47 47 47 47 46 45 46 45
47 51 53 54 53 53 53 54 53 53 52 51 50 50 49 48 48 47 47 47 47 47 46 46 45 45 45 45 44 44 43 43
47 49 52 54 54 53 53 53 52 51 51 50 50 49 48 48 47 47 46 46 46 46 45 45 44 43 43 42 42 42 42 41
42 47 50 53 54 54 53 53 52 52 51 50 49 48 48 47 46 46 46 45 46 45 45 44 43 42 41 41 41 40 40 39
44 48 50 53 54 55 54 53 52 51 51 50 48 48 47 46 46 46 45 45 44 43 42 42 41 41 40 39 39 39 38 37
48 48 50 52 52 51 52 52 51 51 50 49 48 48 47 47 46 45 45 45 44 43 42 41 41 40 39 38 37 36 36 34
43 44 45 46 47 48 50 51 51 50 50 49 48 48 48 47 46 46 46 45 44 43 42 41 40 39 37 36 36 34 33 32
29 30 34 37 42 44 46 48 49 53 50 49 48 48 48 47 47 46 46 45 43 43 41 39 38 37 34 35 34 33 32 30
24 25 27 32 35 39 40 45 47 48 48 51 49 49 48 47 47 46 45 43 42 41 40 39 37 36 34 34 34 33 31 29
24 24 24 26 32 35 38 41 44 46 46 47 50 49 48 47 47 45 44 43 42 41 40 38 37 35 34 34 34 33 31 29